Regional Weather Roundup
Issued by NWS Little Rock, AR

Home | Current Version | Previous Version | Graphics & Text | Print | Product List | Glossary On
Versions: 1 2 3 4 5 6 7 8 9 10 11 12 13 14 15 16 17 18 19 20 21 22 23 24 25 26 27
000
ASUS44 KLZK 250705
RWRLZK

WEATHER ROUNDUP FOR ARKANSAS
NATIONAL WEATHER SERVICE LITTLE ROCK AR
200 AM CDT MON JUL 25 2016

NOTE: "FAIR" INDICATES FEW OR NO CLOUDS BELOW 12,000 FEET WITH NO
SIGNIFICANT WEATHER AND/OR OBSTRUCTIONS TO VISIBILITY.

ARZ001-003-010-029-250800-
NORTHWEST ARKANSAS

CITY           SKY/WX    TMP DP  RH WIND       PRES   REMARKS
FAYETTEVILLE   CLEAR     74  71  91 CALM      29.99F
FORT SMITH     CLEAR     77  71  82 E5        29.95F
HARRISON       CLEAR     74  70  87 CALM      29.99F
BENTONVILLE    PTCLDY    79  66  65 CALM      30.00F
ROGERS         CLEAR     78  69  73 CALM      30.00F
SILOAM SPGS    CLEAR     77  64  65 CALM      30.00F
HIGHFILL       CLEAR     78  70  76 SW3       29.99F
$$

ARZ004-005-016-250800-
NORTH CENTRAL ARKANSAS

CITY           SKY/WX    TMP DP  RH WIND       PRES   REMARKS
BATESVILLE     PTCLDY    75  72  88 CALM      29.96F
FLIPPIN        CLEAR     75  72  88 E3        29.94F
MTN HOME       CLEAR     76  74  93 CALM      29.97S
$$

ARZ040-041-250800-
WEST CENTRAL ARKANSAS

CITY           SKY/WX    TMP DP  RH WIND       PRES   REMARKS
MENA           CLOUDY    77  73  88 W5        30.00F
MOUNT IDA      CLOUDY    72  72 100 CALM      29.95F
$$

ARZ009-017-025-026-028-250800-
NORTHEAST ARKANSAS

CITY           SKY/WX    TMP DP  RH WIND       PRES   REMARKS
CORNING          N/A     77  77 100 SE5       29.96S
JONESBORO      CLOUDY    77  74  90 CALM      29.95S
NEWPORT        CLEAR     79  76  90 S3        29.96S
WALNUT RIDGE   PTCLDY    79  72  78 CALM      29.95S
BLYTHEVILLE    PTCLDY    80  76  87 S3        29.97S HX  86
$$

ARZ022-023-033-042-044-250800-
CENTRAL ARKANSAS

CITY           SKY/WX    TMP DP  RH WIND       PRES   REMARKS
LITTLE ROCK    PTCLDY    78  72  81 S3        29.95F
N LITTLE ROCK    N/A     76  71  85 CALM      29.93S
JACKSONVILLE   PTCLDY    75  73  93 N3        29.95S
SEARCY         PTCLDY    76  72  87 CALM      29.97S
HOT SPRINGS    PTCLDY    73  72  96 CALM      29.98S
RUSSELLVILLE   CLEAR     73  71  93 CALM      29.95F
$$

ARZ036-250800-
EAST ARKANSAS

CITY           SKY/WX    TMP DP  RH WIND       PRES   REMARKS
WEST MEMPHIS   CLEAR     77  76  96 S3        29.95S
$$

ARZ050-053-066-070-073-250800-
SOUTHWEST ARKANSAS

CITY           SKY/WX    TMP DP  RH WIND       PRES   REMARKS
CAMDEN         PTCLDY    75  70  83 SE5       29.96R
TEXARKANA      CLOUDY    75  70  84 S6        29.96F
EL DORADO      CLEAR     73  72  96 S6        29.97R
DE QUEEN       CLOUDY    76  76 100 CALM      29.95S FOG
$$

ARZ056-057-069-250800-
SOUTHEAST ARKANSAS

CITY           SKY/WX    TMP DP  RH WIND       PRES   REMARKS
PINE BLUFF     CLEAR     75  73  93 CALM      29.97R
STUTTGART      PTCLDY    79  70  73 W3        29.96S
MONTICELLO     CLEAR     75  73  93 CALM      29.97R

$$






USA.gov is the U.S. government's official web portal to all federal, state and local government web resources and services.